Saint Thomas, VI

10:32 PM AST on February 13, 2016 (GMT -0400)
King

Weather History for TIST - December, 2012

Change the Weather History Date:

Wednesday, December 5, 2012

  Actual Average Record
Temperature  
Mean Temperature 81 °F 80 °F  
Max Temperature 86 °F 86 °F 92 °F (1992)
Min Temperature 76 °F 74 °F 62 °F (1972)
Degree Days  
Heating Degree Days 0 0  
Month to date heating degree days 0 0  
Since 1 July heating degree days 0 0  
Cooling Degree Days 16 15  
Month to date cooling degree days 73 75  
Year to date cooling degree days 5468 5669  
Growing Degree Days 30 (Base 50)    
Moisture  
Dew Point 69 °F    
Average Humidity 74    
Maximum Humidity 87    
Minimum Humidity 61    
Precipitation  
Precipitation T in 0.11 in 1.90 in (1999)
Month to date precipitation 0.25 0.55  
Year to date precipitation 33.78 36.93  
Sea Level Pressure  
Sea Level Pressure 29.93 in    
Wind  
Wind Speed 13 mph (ENE)    
Max Wind Speed 20 mph    
Max Gust Speed 24 mph    
Visibility 10 miles    
Events      
T = Trace of Precipitation, MM = Missing Value Source: NWS Daily Summary

Daily Weather History Graph

Daily Weather History Graph

Search for Another Location

Airport or City:

Trip Planner

Search our weather history database for the weather conditions in past years. The results will help you decide how hot, cold, wet, or windy it might be!

Date:

Astronomy

Dec. 05, 2012 Rise Set
Actual Time 6:38 AM AST 5:43 PM AST
Civil Twilight 6:14 AM AST 6:06 PM AST
Nautical Twilight 5:47 AM AST 6:33 PM AST
Astronomical Twilight 5:20 AM AST 7:00 PM AST
Moon 11:47 PM AST (12/5) 11:36 AM AST (12/5)
Length of Visible Light 11h 51m
Length of Day
11h 04m
Waning Gibbous, 60% of the Moon is Illuminated
Dec 5
Waning Gibbous
Dec 6
Last Quarter
Dec 13
New
Dec 20
First Quarter
Dec 28
Full

Hourly Weather History & Observations

Time (AST) Temp. Heat Index Dew Point Humidity Pressure Visibility Wind Dir Wind Speed Gust Speed Precip Events Conditions
12:53 AM 79.0 °F - 71.1 °F 77% 29.95 in 10.0 mi ENE 12.7 mph 19.6 mph N/A   Scattered Clouds
1:53 AM 78.1 °F - 69.1 °F 74% 29.93 in 10.0 mi ENE 10.4 mph 21.9 mph N/A   Partly Cloudy
2:53 AM 78.1 °F - 69.1 °F 74% 29.93 in 10.0 mi ENE 15.0 mph - N/A   Partly Cloudy
3:53 AM 75.9 °F - 71.1 °F 85% 29.92 in 10.0 mi NE 12.7 mph - N/A   Overcast
4:53 AM 78.1 °F - 69.1 °F 74% 29.91 in 10.0 mi ENE 16.1 mph 26.5 mph N/A   Scattered Clouds
5:53 AM 77.0 °F - 66.0 °F 69% 29.92 in 10.0 mi ENE 13.8 mph - N/A   Clear
6:53 AM 78.1 °F - 68.0 °F 71% 29.94 in 10.0 mi East 11.5 mph 17.3 mph N/A   Scattered Clouds
7:53 AM 80.1 °F 82.7 °F 68.0 °F 67% 29.96 in 10.0 mi ENE 17.3 mph 26.5 mph N/A   Scattered Clouds
8:53 AM 81.0 °F 84.1 °F 69.1 °F 67% 29.97 in 10.0 mi ENE 13.8 mph 24.2 mph N/A   Clear
10:53 AM 84.9 °F 89.4 °F 70.0 °F 61% 29.98 in 10.0 mi East 15.0 mph 20.7 mph 0.03 in   Clear
11:53 AM 84.0 °F 88.4 °F 70.0 °F 63% 29.97 in 10.0 mi North - - N/A   Clear
12:53 PM 84.9 °F 90.1 °F 71.1 °F 63% 29.94 in 10.0 mi ENE 9.2 mph 18.4 mph N/A   Partly Cloudy
1:53 PM 84.0 °F 88.4 °F 70.0 °F 63% 29.91 in - NE 18.4 mph 23.0 mph N/A   Partly Cloudy
2:53 PM 84.0 °F 89.0 °F 71.1 °F 65% 29.89 in - NE 13.8 mph - N/A   Unknown
3:53 PM 82.9 °F 86.5 °F 69.1 °F 63% 29.89 in 10.0 mi East 16.1 mph - N/A   Clear
4:53 PM 81.0 °F 84.4 °F 70.0 °F 69% 29.90 in 10.0 mi East 13.8 mph - N/A   Partly Cloudy
5:53 PM 80.1 °F 83.2 °F 70.0 °F 71% 29.91 in 10.0 mi East 10.4 mph - N/A   Partly Cloudy
6:53 PM 79.0 °F - 70.0 °F 74% 29.92 in 10.0 mi East 15.0 mph - 0.00 in   Mostly Cloudy
7:53 PM 79.0 °F - 70.0 °F 74% 29.93 in 10.0 mi East 10.4 mph - 0.00 in   Scattered Clouds
8:53 PM 79.0 °F - 69.1 °F 72% 29.94 in 10.0 mi East 10.4 mph - N/A   Scattered Clouds
9:53 PM 78.1 °F - 69.1 °F 74% 29.94 in 10.0 mi ENE 10.4 mph 19.6 mph N/A   Partly Cloudy
10:53 PM 78.1 °F - 69.1 °F 74% 29.93 in 10.0 mi East 12.7 mph - N/A   Partly Cloudy
11:53 PM 78.1 °F - 69.1 °F 74% 29.93 in 10.0 mi East 9.2 mph - N/A   Clear